Content
SEND FEEDBACK

Daily
Averages
Monthly
Summary
Colombia

BOGOTA, COLOMBIA


Home > South America > Colombia
Elevation: 8357 feet     Latitude: 04 42N     Longitude: 074 08W

WEATHER
 
SELECT A DAY
Number of Records: 169,177;   Date Range: 6/30/96 - 9/22/14
 
SHARE

PRINT THIS DATA

[ ← Previous Day ]
WEATHER ALMANAC - SEPTEMBER 25, 2013
[ Next Day → ]
[ °C ]   °F
Weather ElementAverageHighLow
Temperature59.6 °F67 °F (1:00 pm)50 °F (4:00 am)
Dewpoint47 °F50 °F (10:00 pm)44.6 °F (1:00 am)
Humidity62.5 %87 % (4:00 am)33 % (4:00 pm)
Barometer30.30 in30.37 in (10:00 pm)30.21 in (4:00 pm)
Wind Speed10.3 mph49.2 mph (10:00 am)
Weather ElementAverage
Visibility7.1 mi
Wind DirectionESE (121.6 °)

Weather ElementTotal
Precipitation---
Heating Degree Days6.5 (Base 65)
Growing Degree Days8.5 (Base 50)
Averaged from 32 records on September 25, 2013
WEATHER CONDITIONS BREAKOUT
WIND DIRECTION BREAKOUT
WEATHER BY HOUR - SEPTEMBER 25, 2013
[ °C ]   °F
Local TimeTemperatureDewpointHumidityBarometerVisibilityWind DirectionWind SpeedGust SpeedPrecipitationEventsConditions
1:00 AM55.0 °F46.0 °F63 %11.0 miSE (130°)8.9 mphPartly Cloudy
1:00 AM55.4 °F44.6 °F67 %30.32 in6.2 miESE (120°)9.2 mphScattered Clouds
2:00 AM57.2 °F46.4 °F67 %30.30 in6.2 miSouth (170°)5.8 mphMostly Cloudy
3:00 AM53.6 °F46.4 °F77 %30.29 in6.2 miSSE (150°)5.8 mphMostly Cloudy
4:00 AM51.0 °F47.0 °F81 %11.0 miENE (60°)2.2 mphHaze
4:00 AM50.0 °F46.4 °F87 %30.28 in6.2 miVariable2.3 mphMostly Cloudy
5:00 AM53.6 °F44.6 °F72 %30.28 in6.2 miSE (130°)5.8 mphMostly Cloudy
5:30 AM55.4 °F46.4 °F72 %30.29 in6.2 miVariable2.3 mphMostly Cloudy
6:00 AM53.6 °F48.2 °F82 %30.30 in6.2 miNE (50°)5.8 mphMostly Cloudy
7:00 AM56.0 °F49.0 °F69 %10.0 miEast (80°)8.9 mphHaze
7:00 AM57.2 °F48.2 °F72 %30.32 in6.2 miEast (80°)9.2 mphMostly Cloudy
8:00 AM59.0 °F48.2 °F67 %30.32 in6.2 miSSE (160°)11.5 mphScattered Clouds
9:00 AM62.6 °F48.2 °F59 %30.33 in6.2 miSE (140°)11.5 mphScattered Clouds
10:00 AMNNE (20°)49.2 mphOvercast
10:00 AM64.4 °F48.2 °F56 %30.34 in6.2 miESE (120°)18.4 mphMostly Cloudy
11:00 AM66.2 °F46.4 °F49 %30.33 in6.2 miSE (130°)18.4 mphScattered Clouds
12:00 PM66.2 °F46.4 °F49 %30.30 in6.2 miSouth (180°)18.4 mphScattered Clouds
1:00 PM67.0 °F45.0 °F34 %10.0 miSSE (150°)15.7 mphMostly Cloudy
1:00 PM66.2 °F44.6 °F46 %30.28 in6.2 miSSE (150°)15.0 mphMostly Cloudy
2:00 PM66.2 °F46.4 °F49 %30.25 in6.2 miSE (140°)13.8 mphMostly Cloudy
3:00 PM66.2 °F46.4 °F49 %30.23 in6.2 miSE (130°)13.8 mphScattered Clouds
4:00 PM67.0 °F45.0 °F33 %10.0 miESE (120°)13.4 mphHaze
4:00 PM66.2 °F44.6 °F46 %30.21 in6.2 miESE (120°)13.8 mphScattered Clouds
5:00 PM64.4 °F48.2 °F56 %30.23 in6.2 miEast (80°)4.6 mphScattered Clouds
6:00 PM60.8 °F46.4 °F59 %30.26 in6.2 miSE (130°)10.4 mphScattered Clouds
7:00 PM59.0 °F47.0 °F55 %9.0 miWest (260°)4.5 mphHaze
7:00 PM59.0 °F46.4 °F63 %30.29 in6.2 miWest (260°)4.6 mphScattered Clouds
8:00 PM57.2 °F48.2 °F72 %30.32 in6.2 miNNW (330°)4.6 mphMostly Cloudy
9:00 PM59.0 °F48.2 °F67 %30.35 in6.2 miEast (90°)5.8 mphMostly Cloudy
10:00 PM58.0 °F50.0 °F66 %9.0 miEast (90°)6.7 mphHaze
10:00 PM57.2 °F50.0 °F77 %30.37 in6.2 miEast (90°)5.8 mphMostly Cloudy
11:00 PM57.2 °F50.0 °F77 %30.36 in6.2 miNNE (30°)4.6 mphScattered Clouds
Hourly data recorded from SKBO, located miles away from Bogota, Colombia







STORIES FROM OUR PARTNERS